This is the latest recevied weather packets stored in our database for station/object W4MLN-1. If no packets are shown the sender has not sent any weather packets the latest 10 day(s).
| Time | Temp. | Humidity | Pressure | Rain* | Wind** | Luminosity | Snow |
|---|---|---|---|---|---|---|---|
| 1777755188 | 11.11° C | 46% | 1011.9 hPa | 0 mm | - | 215 W/m² | - |
| 1777754888 | 11.11° C | 46% | 1012 hPa | 0 mm | - | 263 W/m² | - |
| 1777754587 | 11.67° C | 46% | 1011.9 hPa | 0 mm | - | 352 W/m² | - |
| 1777754288 | 11.67° C | 46% | 1011.9 hPa | 0 mm | - | 312 W/m² | - |
| 1777753988 | 11.67° C | 47% | 1011.9 hPa | 0 mm | - | 908 W/m² | - |
| 1777753688 | 12.22° C | 45% | 1011.9 hPa | 0 mm | - | 376 W/m² | - |
| 1777753388 | 11.67° C | 47% | 1011.8 hPa | 0 mm | - | 958 W/m² | - |
| 1777753088 | 11.11° C | 46% | 1011.9 hPa | 0 mm | - | 301 W/m² | - |
| 1777752789 | 11.67° C | 46% | 1012 hPa | 0 mm | - | 317 W/m² | - |
| 1777752488 | 11.67° C | 45% | 1011.9 hPa | 0 mm | - | 301 W/m² | - |
| 1777752189 | 12.78° C | 45% | 1012 hPa | 0 mm | - | 336 W/m² | - |
| 1777751888 | 12.22° C | 44% | 1011.9 hPa | 0 mm | - | 994 W/m² | - |
| 1777751589 | 12.22° C | 46% | 1012 hPa | 0 mm | - | 1045 W/m² | - |
| 1777751286 | 12.22° C | 45% | 1011.9 hPa | 0 mm | - | 726 W/m² | - |
| 1777750986 | 12.22° C | 45% | 1012 hPa | 0 mm | - | 908 W/m² | - |
| 1777750686 | 11.67° C | 46% | 1012 hPa | 0 mm | - | 733 W/m² | - |
| 1777750386 | 11.67° C | 44% | 1012.1 hPa | 0 mm | - | 826 W/m² | - |
| 1777750086 | 11.67° C | 46% | 1012.1 hPa | 0 mm | - | 611 W/m² | - |
| 1777749786 | 11.67° C | 45% | 1012.2 hPa | 0 mm | - | 358 W/m² | - |
| 1777749486 | 11.67° C | 44% | 1012.1 hPa | 0 mm | - | 307 W/m² | - |
| 1777749186 | 11.67° C | 43% | 1012 hPa | 0 mm | - | 339 W/m² | - |
| 1777748887 | 12.22° C | 43% | 1011.9 hPa | 0 mm | - | 804 W/m² | - |
| 1777748586 | 12.78° C | 42% | 1012 hPa | 0 mm | - | 465 W/m² | - |
| 1777748287 | 12.78° C | 43% | 1011.9 hPa | 0 mm | - | 1041 W/m² | - |
| 1777747987 | 12.78° C | 45% | 1011.9 hPa | 0 mm | - | 976 W/m² | - |
* Rain latest hour (hover to see other rain measurements)
** Current wind speed in m/s (hover to see current wind gust speed)